ZA-AEROSAT (42713 NORAD) Tracking and Keplerian Element Data

This shows tracking and keplerian element data for the satellite.

Feedback or suggestion? Click here.




ElementValue
Catalog42713
NameZA-AEROSAT
Epoch Orbit11652
Epoch Day151.03730059
Epoch Year2019
RAAN356.2792
Inclination51.6172
Eccentricity0.0012791
Argument of Perigee275.7272
Mean Anonmoly84.2292
Mean Motion16.30383675
Decay Rate0.02928871
L11 42713U 98067LU 19151.03730059 .02928871 12128-4 58594-3 0 9990
L22 42713 51.6172 356.2792 0012791 275.7272 84.2292 16.30383675116521



Live tracking and technical data element details for ZA-AEROSAT (NORAD 42713). ZA-AEROSAT can be tracked NOW for your location showing map with azimuth and elevation plus other details from your city location.







IsCatalogInMostPopularTable: catalog: 42713, numindb: 637
Update: records affected: 1



GetName: 42713 ZA-AEROSAT

Hit Count: updated at: Fri, 02 Dec 2022 13:23:49 GMT